GW3356 Weather Reports


time (UTC)temp
F
wind
direction
speed
knots
gust
knots
rain 1hr
in
rain 24hr
in
rain mn
in
humidity
%
barometer
mb
20260504192254 70 16 0.0 0.9 0.00 0.18 0.18 79 1003.8
20260504191753 69 13 0.0 0.0 0.00 0.18 0.18 86 1003.8
20260504191249 66 18 0.0 0.9 0.00 0.18 0.18 86 1003.7
20260504190745 64 17 0.0 0.0 0.00 0.18 0.18 93 1003.7
20260504190241 62 4 0.0 0.0 0.00 0.18 0.18 91 1003.2
20260504185738 62 17 0.0 0.9 0.00 0.18 0.18 90 1003.2
20260504185235 62 26 0.0 0.9 0.00 0.18 0.18 91 1002.6
20260504184731 62 16 0.0 0.9 0.00 0.18 0.18 90 1003.8
20260504184227 62 24 0.0 0.0 0.00 0.18 0.18 90 1004.6
20260504183723 62 24 0.0 0.0 0.00 0.18 0.18 89 1004.7
20260504183220 62 20 0.0 0.0 0.00 0.18 0.18 89 1004.7
20260504182718 62 28 0.0 0.0 0.00 0.18 0.18 89 1004.7
20260504182215 63 33 0.0 0.0 0.00 0.18 0.18 90 1004.9
20260504181712 63 27 0.0 0.0 0.00 0.18 0.18 91 1004.5
20260504181210 62 19 0.0 0.0 0.00 0.18 0.18 91 1004.4
20260504180709 62 22 0.0 0.9 0.00 0.18 0.18 91 1004.5
20260504180207 62 18 0.0 0.0 0.00 0.18 0.18 91 1004.5
20260504175704 61 22 0.0 0.0 0.00 0.18 0.18 91 1004.4
20260504175201 60 24 0.0 0.0 0.05 0.18 0.18 91 1004.4
20260504174659 60 19 0.0 0.0 0.12 0.18 0.18 90 1004.5
20260504174155 60 34 0.0 0.0 0.50 0.17 0.17 89 1004.7
20260504173652 61 16 0.0 0.0 0.50 0.15 0.15 89 1004.7
20260504173150 61 19 0.0 0.0 0.07 0.08 0.08 89 1004.9
20260504172646 61 21 0.0 0.0 0.05 0.07 0.07 89 1004.9
20260504172143 61 26 0.0 0.9 0.05 0.07 0.07 88 1005.0
20260504171639 61 14 0.0 0.0 0.00 0.06 0.06 87 1005.2
20260504171137 61 25 0.0 0.0 0.00 0.06 0.06 88 1005.1
20260504170633 60 24 0.0 0.0 0.00 0.06 0.06 88 1005.1
20260504170130 60 30 0.0 0.0 0.00 0.06 0.06 87 1005.2
20260504151016 64 11 0.0 0.0 0.00 0.00 0.00 65 1006.8
20260504150513 65 12 0.0 0.0 0.00 0.00 0.00 68 1006.6
20260504140939 68 26 0.0 0.0 0.00 0.00 0.00 57 1006.7
20260504140436 68 14 0.0 0.0 0.00 0.00 0.00 58 1006.6
20260504130400 61 16 0.0 0.9 0.00 0.00 0.00 68 1007.3
20260504110248 58 14 0.0 0.0 0.00 0.00 0.00 74 1007.5
20260504100211 59 15 0.0 0.0 0.00 0.00 0.00 70 1007.9
20260504090133 60 15 0.0 0.0 0.00 0.00 0.00 68 1007.6
20260504081604 61 15 0.0 0.0 0.00 0.00 0.00 67 1007.6
20260504081100 61 15 0.0 0.0 0.00 0.00 0.00 66 1007.4
20260504080556 61 15 0.0 0.0 0.00 0.00 0.00 65 1007.3
20260504050409 65 32 0.0 3.5 0.00 0.00 0.00 54 1007.4
20260504045906 65 36 0.0 0.9 0.00 0.00 0.00 55 1007.3
20260504045402 65 16 0.0 1.7 0.00 0.00 0.00 55 1007.6
20260504044858 65 10 0.9 1.7 0.00 0.00 0.00 55 1007.4
20260504044356 65 45 0.9 1.7 0.00 0.00 0.00 55 1007.2
20260504043853 65 19 0.0 0.9 0.00 0.00 0.00 55 1007.4
20260504043350 66 26 0.9 2.6 0.00 0.00 0.00 55 1007.6
20260504042848 66 34 0.0 0.9 0.00 0.00 0.00 54 1007.7
20260504042344 67 28 0.0 0.9 0.00 0.00 0.00 54 1008.0
20260504041840 67 34 0.0 1.7 0.00 0.00 0.00 52 1008.1
20260504041336 67 11 0.0 2.6 0.00 0.00 0.00 51 1008.2
20260504040832 67 26 0.0 0.9 0.00 0.00 0.00 52 1008.2
20260504040330 67 350 0.0 0.9 0.00 0.00 0.00 52 1008.3
20260504035826 67 14 0.0 0.0 0.00 0.00 0.00 52 1008.4
20260504035324 66 30 0.0 0.9 0.00 0.00 0.00 53 1008.3
20260504034821 66 31 0.0 0.9 0.00 0.00 0.00 55 1007.7
20260504034318 66 19 0.9 1.7 0.00 0.00 0.00 57 1007.4
20260504033815 66 10 0.0 0.9 0.00 0.00 0.00 56 1008.3
20260504033313 66 16 0.0 0.9 0.00 0.00 0.00 57 1008.3
20260504032809 66 9 0.0 0.9 0.00 0.00 0.00 56 1008.8
20260504032306 66 10 0.9 0.9 0.00 0.00 0.00 56 1008.7
20260504031803 67 13 0.0 0.0 0.00 0.00 0.00 55 1008.8
20260504031301 67 13 0.0 0.0 0.00 0.00 0.00 55 1008.9
20260504030756 67 13 0.0 0.0 0.00 0.00 0.00 54 1008.9
20260504030254 67 13 0.0 0.0 0.00 0.00 0.00 54 1008.8
20260504025750 67 14 0.0 0.0 0.00 0.00 0.00 53 1008.8
20260504025247 68 14 0.0 0.0 0.00 0.00 0.00 52 1008.6
20260504024744 68 14 0.0 0.0 0.00 0.00 0.00 51 1008.7
20260504024240 68 14 0.0 0.0 0.00 0.00 0.00 51 1008.6
20260504023738 69 14 0.0 0.0 0.00 0.00 0.00 50 1008.8
20260504023233 69 23 0.0 0.0 0.00 0.00 0.00 49 1008.8
20260504022730 69 23 0.0 0.0 0.00 0.00 0.00 49 1008.7
20260504022226 70 23 0.0 0.0 0.00 0.00 0.00 48 1008.6
20260504021723 70 23 0.0 0.0 0.00 0.00 0.00 47 1008.5
20260504021220 70 23 0.0 0.0 0.00 0.00 0.00 47 1008.6
20260504020717 71 24 0.0 0.0 0.00 0.00 0.00 46 1008.6
20260504020214 71 19 0.0 0.9 0.00 0.00 0.00 44 1008.4
20260504015710 71 33 0.0 0.9 0.00 0.00 0.00 44 1008.8
20260504015206 71 29 0.0 0.0 0.00 0.00 0.00 45 1008.7
20260504014702 70 23 0.0 0.0 0.00 0.00 0.00 46 1008.7
20260504014159 70 24 0.0 0.0 0.00 0.00 0.00 49 1008.6
20260504013657 70 24 0.0 0.0 0.00 0.00 0.00 46 1008.2
20260504013154 71 29 0.0 0.0 0.00 0.00 0.00 45 1008.2
20260504012651 71 17 0.0 0.9 0.00 0.00 0.00 45 1008.0
20260504012149 71 13 0.0 0.0 0.00 0.00 0.00 45 1008.0
20260504011645 71 21 0.0 0.0 0.00 0.00 0.00 44 1008.0
20260504011142 71 22 0.0 0.0 0.00 0.00 0.00 45 1008.1
20260504010638 71 22 0.0 0.0 0.00 0.00 0.00 44 1007.8
20260504010134 72 22 0.0 0.0 0.00 0.00 0.00 44 1008.0
20260504005631 72 22 0.0 0.0 0.00 0.00 0.00 43 1008.2
20260504005127 72 22 0.0 0.0 0.00 0.00 0.00 43 1008.1
20260504004626 73 33 0.0 0.0 0.00 0.00 0.00 42 1007.9
20260504004123 73 27 0.0 0.0 0.00 0.00 0.00 42 1008.1
20260504003619 74 27 0.0 0.0 0.00 0.00 0.00 41 1008.1
20260504003115 74 27 0.0 0.0 0.00 0.00 0.00 40 1007.9
20260504002612 75 27 0.0 0.0 0.00 0.00 0.00 39 1008.2
20260504002110 75 24 0.0 0.0 0.00 0.00 0.00 38 1008.2
20260504001608 75 32 0.0 0.0 0.00 0.00 0.00 39 1008.0
20260504001103 75 32 0.0 0.0 0.00 0.00 0.00 39 1008.1
20260504000601 76 23 0.0 0.0 0.00 0.00 0.00 38 1008.1
20260504000058 76 18 0.0 0.0 0.00 0.00 0.00 37 1008.2
20260503235556 77 30 0.0 0.0 0.00 0.00 0.00 37 1008.2
20260503235053 77 25 0.0 0.9 0.00 0.00 0.00 36 1008.0
20260503234550 77 37 0.0 0.0 0.00 0.00 0.00 34 1008.1
20260503234048 77 35 0.0 0.9 0.00 0.00 0.00 34 1008.2
20260503233545 77 23 0.0 0.0 0.00 0.00 0.00 36 1008.4
20260503233041 77 27 0.0 0.9 0.00 0.00 0.00 34 1008.3
20260503232538 78 29 0.0 0.9 0.00 0.00 0.00 33 1008.3
20260503232035 78 30 0.0 0.9 0.00 0.00 0.00 33 1008.4
20260503231533 78 52 0.9 2.6 0.00 0.00 0.00 32 1008.4
20260503231029 78 21 0.0 0.0 0.00 0.00 0.00 32 1008.5
20260503230526 78 35 0.0 0.9 0.00 0.00 0.00 31 1008.5
20260503230024 78 44 0.0 0.9 0.00 0.00 0.00 32 1008.8
20260503225520 78 22 0.9 1.7 0.00 0.00 0.00 31 1008.6
20260503225016 78 33 0.0 1.7 0.00 0.00 0.00 31 1008.6
20260503224514 79 351 0.9 2.6 0.00 0.00 0.00 31 1008.7
20260503224011 79 2 0.0 3.5 0.00 0.00 0.00 29 1008.8
20260503223509 79 23 0.0 1.7 0.00 0.00 0.00 30 1008.9
20260503223004 80 35 0.0 3.5 0.00 0.00 0.00 28 1008.8
20260503222502 82 33 0.0 1.7 0.00 0.00 0.00 27 1008.8
20260503222000 84 13 0.0 1.7 0.00 0.00 0.00 26 1008.8
20260503221458 85 191 0.0 1.7 0.00 0.00 0.00 25 1009.0
20260503220955 85 147 0.9 1.7 0.00 0.00 0.00 24 1008.9
20260503220451 85 28 0.9 1.7 0.00 0.00 0.00 24 1008.9
20260503215948 85 46 0.0 1.7 0.00 0.00 0.00 24 1009.2
20260503215445 84 35 0.0 0.9 0.00 0.00 0.00 25 1009.1
20260503214943 84 11 0.0 2.6 0.00 0.00 0.00 25 1009.2
20260503214441 84 28 0.0 1.7 0.00 0.00 0.00 25 1009.4
20260503213938 85 35 0.0 3.5 0.00 0.00 0.00 24 1009.3
20260503213436 85 31 0.0 0.9 0.00 0.00 0.00 24 1009.2
20260503212932 84 21 1.7 3.5 0.00 0.00 0.00 24 1009.3
20260503212429 83 137 0.9 2.6 0.00 0.00 0.00 24 1009.2
20260503211927 82 1 0.9 2.6 0.00 0.00 0.00 26 1009.4
20260503211423 83 330 0.9 1.7 0.00 0.00 0.00 24 1009.4
20260503210919 84 18 0.9 3.5 0.00 0.00 0.00 25 1009.2
20260503210416 84 31 0.9 1.7 0.00 0.00 0.00 24 1009.4
20260503205916 84 25 0.9 2.6 0.00 0.00 0.00 25 1009.5
20260503205414 84 48 0.9 1.7 0.00 0.00 0.00 25 1009.6
20260503204910 84 63 1.7 2.6 0.00 0.00 0.00 24 1009.6
20260503204407 84 23 0.0 5.2 0.00 0.00 0.00 24 1009.6
20260503203904 83 323 0.9 2.6 0.00 0.00 0.00 25 1009.5
20260503203401 84 26 0.0 3.5 0.00 0.00 0.00 25 1009.6
20260503202858 84 8 1.7 2.6 0.00 0.00 0.00 25 1010.0
20260503202356 82 34 0.0 2.6 0.00 0.00 0.00 27 1010.1
20260503201855 81 5 0.0 1.7 0.00 0.00 0.00 27 1010.2
20260503201351 82 349 0.9 3.5 0.00 0.00 0.00 25 1010.1
20260503200849 82 14 0.9 2.6 0.00 0.00 0.00 27 1010.4
20260503200344 81 14 0.9 1.7 0.00 0.00 0.00 27 1010.5
20260503195842 80 53 0.9 1.7 0.00 0.00 0.00 26 1010.5
20260503195338 81 113 0.9 2.6 0.00 0.00 0.00 25 1010.8
20260503194836 80 28 0.0 2.6 0.00 0.00 0.00 27 1011.0
20260503194331 81 48 0.9 5.2 0.00 0.00 0.00 26 1011.1
20260503193828 81 8 0.0 5.2 0.00 0.00 0.00 26 1011.2
20260503193324 82 45 0.9 1.7 0.00 0.00 0.00 27 1011.3
20260503192820 82 20 1.7 1.7 0.00 0.00 0.00 27 1011.5